Regional Weather Roundup
Issued by NWS

Home | Current Version | Previous Version | Graphics & Text | Print | Product List | Glossary On
Versions: 1 2 3 4 5 6 7 8 9 10 11 12 13 14 15 16 17 18 19 20 21 22 23 24 25 26 27 28 29 30 31 32 33 34 35 36 37 38 39 40 41 42 43 44 45 46 47 48 49 50
000
ASUS43 KIND 251509
RWRIN

WEATHER ROUNDUP FOR INDIANA
NATIONAL WEATHER SERVICE INDIANAPOLIS IN
1100 AM EDT MON MAY 25 2015

NOTE: "FAIR" INDICATES FEW OR NO CLOUDS BELOW 12,000 FEET WITH NO
SIGNIFICANT WEATHER AND/OR OBSTRUCTIONS TO VISIBILITY.

* - STATION DOES NOT REPORT WEATHER SUCH AS PRECIPITATION OR FOG.

+ - STATION NOT QUALITY CONTROLLED BY THE NATIONAL WEATHER SERVICE.
    USE DATA WITH CAUTION...ESPECIALLY DEWPOINT AND RELATIVE
    HUMIDITY OBSERVATIONS.

INZ001>003-010>013-019-020-251600-
NORTHWEST INDIANA

CITY           SKY/WX    TMP DP  RH WIND       PRES   REMARKS
GARY /AIRPORT/ RAIN      72  66  83 SW17G35   29.90R
KNOX *+        CLOUDY    72  64  78 SW21G26   29.94S
LA PORTE +     CLOUDY    74  67  80 S16G24    29.92F
MICHIGAN CITY+ CLOUDY    72  63  73 S8G22     29.91S
MONTICELLO +   CLOUDY    71  66  83 S18G30    29.97S
RENSSELAER +   CLOUDY    73  66  78 S29G37    29.94S
VALPARAISO     PTSUNNY   74  65  73 S20G31    29.92S

$$

LMZ046-743>745-251600-
SOUTHERN LAKE MICHIGAN

STATION/POSITION TIME  TEMP    WIND        PRES    WAVE
                       AIR SEA DIR/SP/G            HT
                 (UTC) (F)     (DEG/KT/KT) (MB)    (FT)
BURNS HARBOR     1500   73     200/ 18/ 30 1012.2S
MICHIGAN CITY    1500   73     180/ 23/ 30   N/A
5NW MICH CITY    1500   67 52  220/ 16/ 23   N/A     3

$$

INZ004-005-014>016-021>024-251600-
NORTH CENTRAL INDIANA

CITY           SKY/WX    TMP DP  RH WIND       PRES   REMARKS
ELKHART        CLOUDY    73  63  68 SW21G35   29.95R
GOSHEN         CLOUDY    74  63  68 SW22G41   29.96R
LOGANSPORT +   RAIN      70  63  78 S24G31    30.01R
PERU/GRISSOM   CLOUDY    71  66  83 SW15G25   29.99S
ROCHESTER +    PTSUNNY   73  64  73 S16G24    29.98S
SOUTH BEND     CLOUDY    75  67  76 S24G37    29.93S
WARSAW +       LGT RAIN  72  64  78 SW5       29.97F

$$

INZ006>009-017-018-025>027-251600-
NORTHEAST INDIANA

CITY           SKY/WX    TMP DP  RH WIND       PRES   REMARKS
ANGOLA *+      CLOUDY    75  64  69 SW21      29.98S
AUBURN +       CLOUDY    72  63  73 SW10G23   30.01S
FORT WAYNE     PTSUNNY   74  64  71 SW20G30   30.02S
HUNTINGTON +   CLOUDY    73  64  73 SW14G21   30.01F

$$

INZ028-029-035-036-043>045-051>053-251600-
WEST CENTRAL INDIANA

CITY           SKY/WX    TMP DP  RH WIND       PRES   REMARKS
CRAWFORDSVL +  CLOUDY    68  60  75 S17G26    30.03R
GREENCASTLE +  CLOUDY    68  61  77 S9G18     30.05S
LAFAYETTE      CLOUDY    72  64  76 S16G32    29.98R
TERRE HAUTE    LGT RAIN  69  66  90 S14       30.04S

$$

INZ030>032-037>040-046>048-054>057-064-065-251600-
CENTRAL INDIANA

CITY           SKY/WX    TMP DP  RH WIND       PRES   REMARKS
CP ATTERBURY + CLOUDY    70  63  78 S13G20    30.09S
FISHERS *+     CLOUDY    70  66  88 S18G25    30.05S
FRANKFORT +    CLOUDY    73  65  78 S16G28    30.03S
GREENWOOD *+   CLOUDY    72  61  68 SW18      30.08S
INDIANAPOLIS   CLOUDY    70  63  78 S17G25    30.04S
-EAGLE CREEK   CLOUDY    70  64  81 S14G23    30.04S
KOKOMO *+      CLOUDY    72  63  73 SW26G32   30.02S
MARION +       CLOUDY    72  62  70 SW26      30.04S
MT COMFORT *+  CLOUDY    72  61  68 S16G23    30.07S
SHELBYVILLE    CLOUDY    72  64  76 S17       30.07S
ZIONSVILLE +   CLOUDY    73  63  70 S15G23    30.04F

$$

INZ033-034-041-042-049-050-058-059-251600-
EAST CENTRAL INDIANA

CITY           SKY/WX    TMP DP  RH WIND       PRES   REMARKS
MUNCIE         CLOUDY    73  63  70 SW20G30   30.05S

$$

INZ060-061-067>069-081>083-085>088-251600-
SOUTHWEST INDIANA

CITY           SKY/WX    TMP DP  RH WIND       PRES   REMARKS
EVANSVILLE     CLOUDY    72  67  84 S14       30.09S
HUNTINGBURG *+ CLOUDY    70  64  83 S14       30.11S
WASHINGTON +   CLOUDY    71  66  82 S15G26    30.07R

$$

INZ062-063-066-070>080-084-089>092-251600-
SOUTH CENTRAL AND SOUTHEAST INDIANA

CITY           SKY/WX    TMP DP  RH WIND       PRES   REMARKS
BLOOMINGTON    CLOUDY    70  65  84 S10G24    30.07F
MADISON *+     CLOUDY    68  63  83 S10G18    30.16S
NORTH VERNON + DRIZZLE   68  68 100 S15       30.12F
SEYMOUR +      CLOUDY    70  66  88 S17       30.11S

$$



USA.gov is the U.S. government's official web portal to all federal, state and local government web resources and services.